Location: *
(48.4333°N, 5.0333°W)
Time: 09:35:26
(UTC+00:00)

Cosmos 1825 - Pass Details

Date: 09 April 2020
Orbit: 502 x 509 km, 82.5° (Epoch: 04 June)

Event Time Altitude Azimuth Distance (km) Brightness Sun altitude
Rises 21:35:28 0° 352° (N) 2,630 6.6 -22.8°
Reaches altitude 10° 21:37:38 10° 355° (N) 1,738 5.5 -23.1°
Enters shadow 21:40:39 51° 20° (NNE) 650 2.7 -23.4°
